DW7628 Weather Reports


time (UTC)temp
C
wind
direction
speed
KPH
gust
KPH
rain 1hr
cm
rain 24hr
cm
rain mn
cm
humidity
%
barometer
mb
20260906105306 33 291 0.0 0.0 0.00 0.00 0.00 23 1016.5
20260906104805 33 204 0.0 0.0 0.00 0.00 0.00 22 1016.6
20260906104304 33 125 0.0 0.0 0.00 0.00 0.00 23 1016.6
20260906103805 33 58 0.0 0.0 0.00 0.00 0.00 23 1016.7
20260906103305 33 286 0.0 0.0 0.00 0.00 0.00 23 1016.8
20260906102805 33 174 0.0 0.0 0.00 0.00 0.00 23 1016.9
20260906102306 33 138 0.0 0.0 0.00 0.00 0.00 23 1016.9
20260906101804 33 54 0.0 0.0 0.00 0.00 0.00 23 1016.9
20260906101306 33 139 0.0 0.0 0.00 0.00 0.00 22 1016.9
20260906100804 33 180 0.0 0.0 0.00 0.00 0.00 23 1017.0
20260906100305 33 185 0.0 0.0 0.00 0.00 0.00 24 1017.0
20260906095806 33 225 0.0 0.0 0.00 0.00 0.00 24 1017.1
20260906095306 33 229 0.0 0.0 0.00 0.00 0.00 24 1017.1
20260906094805 33 222 0.0 0.0 0.00 0.00 0.00 25 1017.0
20260906094305 32 203 0.0 0.0 0.00 0.00 0.00 24 1017.1
20260906093305 32 219 0.0 0.0 0.00 0.00 0.00 25 1017.1
20260906092805 32 248 0.0 0.0 0.00 0.00 0.00 25 1017.1
20260906092306 32 58 0.0 0.0 0.00 0.00 0.00 25 1017.1
20260906091804 32 227 0.0 0.0 0.00 0.00 0.00 26 1017.1
20260906091305 31 9 0.0 0.0 0.00 0.00 0.00 27 1017.2
20260906090804 32 15 0.0 0.0 0.00 0.00 0.00 27 1017.2
20260906090304 32 134 0.0 0.0 0.00 0.00 0.00 27 1017.2
20260906085306 31 192 0.0 0.0 0.00 0.00 0.00 28 1017.2
20260906084805 31 216 0.0 0.0 0.00 0.00 0.00 29 1017.2
20260906084305 31 306 0.0 0.0 0.00 0.00 0.00 30 1017.2
20260906083306 31 63 0.0 0.0 0.00 0.00 0.00 31 1017.2
20260906082804 31 171 0.0 0.0 0.00 0.00 0.00 32 1017.2
20260906082306 30 181 0.0 0.0 0.00 0.00 0.00 32 1017.1
20260906080805 30 17 0.0 0.0 0.00 0.00 0.00 33 1017.0
20260906080305 29 160 0.0 0.0 0.00 0.00 0.00 35 1016.9
20260906075805 29 50 0.0 0.0 0.00 0.00 0.00 35 1016.9
20260906074804 28 40 0.0 0.0 0.00 0.00 0.00 36 1016.8
20260906074305 28 1 0.0 0.0 0.00 0.00 0.00 36 1016.8
20260906073804 28 48 0.0 0.0 0.00 0.00 0.00 37 1016.8
20260906073305 28 5 0.0 0.0 0.00 0.00 0.00 38 1016.7
20260906072804 28 7 0.0 0.0 0.00 0.00 0.00 37 1016.7
20260906072306 28 12 0.0 0.0 0.00 0.00 0.00 37 1016.6
20260906071804 28 27 0.0 0.0 0.00 0.00 0.00 37 1016.5
20260906071304 28 313 0.0 0.0 0.00 0.00 0.00 36 1016.6
20260906070805 28 15 0.0 0.0 0.00 0.00 0.00 36 1016.5
20260906070305 27 35 0.0 0.0 0.00 0.00 0.00 37 1016.5
20260906065804 27 4 0.0 0.0 0.00 0.00 0.00 36 1016.4
20260906065306 27 65 0.0 0.0 0.00 0.00 0.00 37 1016.5
20260906063804 26 3 0.0 0.0 0.00 0.00 0.00 40 1016.4
20260906062804 26 32 0.0 0.0 0.00 0.00 0.00 42 1016.5
20260906061804 25 8 0.0 0.0 0.00 0.00 0.00 43 1016.4
20260906061304 25 32 0.0 0.0 0.00 0.00 0.00 43 1016.4
20260906060305 25 1 0.0 0.0 0.00 0.00 0.00 47 1016.4
20260906055804 24 21 0.0 0.0 0.00 0.00 0.00 48 1016.3
20260906055306 23 9 0.0 0.0 0.00 0.00 0.00 49 1016.3
20260906054804 23 49 0.0 0.0 0.00 0.00 0.00 51 1016.3
20260906054304 23 51 0.0 0.0 0.00 0.00 0.00 50 1016.2
20260906053805 23 48 0.0 0.0 0.00 0.00 0.00 51 1016.2
20260906053304 23 30 0.0 0.0 0.00 0.00 0.00 50 1016.1
20260906052805 23 41 0.0 0.0 0.00 0.00 0.00 50 1016.1
20260906052306 23 41 0.0 0.0 0.00 0.00 0.00 50 1016.1
20260906051804 23 16 0.0 0.0 0.00 0.00 0.00 49 1016.0
20260906050804 23 358 0.0 0.0 0.00 0.00 0.00 50 1016.0
20260906050304 23 356 0.0 0.0 0.00 0.00 0.00 51 1015.9
20260906045805 23 95 0.0 0.0 0.00 0.00 0.00 51 1015.9
20260906045306 23 88 0.0 0.0 0.00 0.00 0.00 51 1016.0
20260906044804 23 4 0.0 0.0 0.00 0.00 0.00 51 1016.0
20260906044304 23 9 0.0 0.0 0.00 0.00 0.00 50 1016.0
20260906043804 23 20 0.0 0.0 0.00 0.00 0.00 50 1015.9
20260906043305 23 5 0.0 0.0 0.00 0.00 0.00 49 1015.9
20260906042804 23 300 0.0 0.0 0.00 0.00 0.00 48 1015.9
20260906042306 23 238 0.0 0.0 0.00 0.00 0.00 47 1015.9
20260906041804 23 231 0.0 0.0 0.00 0.00 0.00 48 1015.9
20260906041305 22 233 0.0 0.0 0.00 0.00 0.00 49 1015.8
20260906035805 22 146 0.0 0.0 0.00 0.00 0.00 53 1015.7
20260906035306 22 146 0.0 0.0 0.00 0.00 0.00 53 1015.7
20260906034804 23 114 0.0 0.0 0.00 0.00 0.00 55 1015.6
20260906034304 23 75 0.0 0.0 0.00 0.00 0.00 55 1015.6
20260906033805 23 124 0.0 0.0 0.00 0.00 0.00 57 1015.6
20260906032804 23 25 0.0 0.0 0.00 0.00 0.00 57 1015.7
20260906032306 23 46 0.0 0.0 0.00 0.00 0.00 57 1015.7
20260906031803 23 68 0.0 0.0 0.00 0.00 0.00 57 1015.7
20260906031304 23 55 0.0 0.0 0.00 0.00 0.00 57 1015.7
20260906030805 23 65 0.0 0.0 0.00 0.00 0.00 56 1015.7
20260906030304 23 8 0.0 0.0 0.00 0.00 0.00 55 1015.7
20260906025804 23 37 0.0 0.0 0.00 0.00 0.00 53 1015.7
20260906025306 23 28 0.0 0.0 0.00 0.00 0.00 53 1015.6
20260906024804 23 356 0.0 0.0 0.00 0.00 0.00 53 1015.6
20260906024304 23 358 0.0 0.0 0.00 0.00 0.00 53 1015.6
20260906023803 23 8 0.0 0.0 0.00 0.00 0.00 54 1015.6
20260906022804 23 23 0.0 0.0 0.00 0.00 0.00 55 1015.7
20260906022306 23 119 0.0 0.0 0.00 0.00 0.00 55 1015.7
20260906021804 23 110 0.0 0.0 0.00 0.00 0.00 55 1015.7
20260906021304 22 176 0.0 0.0 0.00 0.00 0.00 54 1015.8
20260906020804 22 178 0.0 0.0 0.00 0.00 0.00 56 1015.7
20260906020304 22 178 0.0 0.0 0.00 0.00 0.00 58 1015.7
20260906015804 22 133 0.0 0.0 0.00 0.00 0.00 60 1015.7
20260906015306 22 95 0.0 0.0 0.00 0.00 0.00 61 1015.8
20260906014804 22 84 0.0 0.0 0.00 0.00 0.00 63 1015.8
20260906014304 23 105 0.0 0.0 0.00 0.00 0.00 64 1015.8
20260906013803 23 36 0.0 0.0 0.00 0.00 0.00 64 1015.8
20260906012804 23 40 0.0 0.0 0.00 0.00 0.00 63 1015.9
20260906012306 23 59 0.0 0.0 0.00 0.00 0.00 63 1015.9
20260906011804 23 76 0.0 0.0 0.00 0.00 0.00 64 1016.0
20260906010304 23 62 0.0 0.0 0.00 0.00 0.00 64 1016.0
20260906005804 23 30 0.0 0.0 0.00 0.00 0.00 64 1015.9
20260906005306 23 322 0.0 0.0 0.00 0.00 0.00 64 1016.0
20260906004806 23 56 0.0 0.0 0.00 0.00 0.00 64 1016.0
20260906003806 23 36 0.0 0.0 0.00 0.00 0.00 64 1016.0
20260906003306 23 143 0.0 0.0 0.00 0.00 0.00 65 1016.0
20260906002806 23 198 0.0 0.0 0.00 0.00 0.00 65 1016.0
20260906002306 23 221 0.0 0.0 0.00 0.00 0.00 65 1016.0
20260906001806 23 214 0.0 0.0 0.00 0.00 0.00 65 1016.0
20260906001306 23 12 0.0 0.0 0.00 0.00 0.00 65 1016.0
20260906000806 23 103 0.0 0.0 0.00 0.00 0.00 64 1016.1
20260905235806 23 52 0.0 0.0 0.00 0.00 0.00 62 1016.2
20260905235307 23 176 0.0 0.0 0.00 0.00 0.00 61 1016.2
20260905234806 23 158 0.0 0.0 0.00 0.00 0.00 60 1016.2
20260905234306 23 233 0.0 0.0 0.00 0.00 0.00 61 1016.2
20260905233806 23 233 0.0 0.0 0.00 0.00 0.00 61 1016.1
20260905233306 23 233 0.0 0.0 0.00 0.00 0.00 62 1016.2
20260905232807 23 233 0.0 0.0 0.00 0.00 0.00 62 1016.2
20260905232307 23 233 0.0 0.0 0.00 0.00 0.00 62 1016.3
20260905231806 23 212 0.0 0.0 0.00 0.00 0.00 62 1016.4
20260905230305 23 141 0.0 0.0 0.00 0.00 0.00 62 1016.5
20260905225806 23 145 0.0 0.0 0.00 0.00 0.00 62 1016.4
20260905224306 23 59 0.0 0.0 0.00 0.00 0.00 61 1016.4
20260905223806 23 228 0.0 0.0 0.00 0.00 0.00 61 1016.5
20260905223306 23 228 0.0 0.0 0.00 0.00 0.00 61 1016.5
20260905222807 23 227 0.0 0.0 0.00 0.00 0.00 61 1016.4
20260905221306 23 226 0.0 0.0 0.00 0.00 0.00 62 1016.4
20260905220827 24 180 0.0 0.0 0.00 0.00 0.00 62 1016.4
20260905215805 24 233 0.0 0.0 0.00 0.00 0.00 62 1016.5
20260905214805 24 231 0.0 0.0 0.00 0.00 0.00 61 1016.5
20260905214306 24 225 0.0 0.0 0.00 0.00 0.00 61 1016.4
20260905213805 24 199 0.0 0.0 0.00 0.00 0.00 61 1016.4
20260905213306 24 163 0.0 0.0 0.00 0.00 0.00 60 1016.4
20260905212806 24 125 0.0 0.0 0.00 0.00 0.00 60 1016.4
20260905212307 24 84 0.0 0.0 0.00 0.00 0.00 60 1016.4
20260905211805 25 35 0.0 0.0 0.00 0.00 0.00 60 1016.4
20260905210806 25 18 0.0 0.0 0.00 0.00 0.00 60 1016.4
20260905210306 25 18 0.0 0.0 0.00 0.00 0.00 60 1016.4
20260905205806 25 77 0.0 0.0 0.00 0.00 0.00 60 1016.4
20260905205306 25 205 0.0 0.0 0.00 0.00 0.00 60 1016.3
20260905204305 25 163 0.0 0.0 0.00 0.00 0.00 59 1016.3
20260905203806 25 218 0.0 0.0 0.00 0.00 0.00 58 1016.5
20260905203306 25 167 0.0 0.0 0.00 0.00 0.00 58 1016.4
20260905202806 25 38 0.0 0.0 0.00 0.00 0.00 57 1016.4
20260905202306 25 44 0.0 0.0 0.00 0.00 0.00 57 1016.4
20260905201806 25 42 0.0 0.0 0.00 0.00 0.00 56 1016.5
20260905200806 25 145 0.0 0.0 0.00 0.00 0.00 56 1016.4
20260905200305 25 156 0.0 0.0 0.00 0.00 0.00 56 1016.4
20260905195307 26 18 0.0 0.0 0.00 0.00 0.00 56 1016.5
20260905194806 26 3 0.0 0.0 0.00 0.00 0.00 56 1016.4
20260905194305 26 120 0.0 0.0 0.00 0.00 0.00 56 1016.4
20260905193305 26 52 0.0 0.0 0.00 0.00 0.00 56 1016.4
20260905192805 26 24 0.0 0.0 0.00 0.00 0.00 56 1016.2
20260905192306 26 15 0.0 0.0 0.00 0.00 0.00 55 1016.3
20260905191307 26 118 0.0 0.0 0.00 0.00 0.00 54 1016.2
20260905190306 26 68 0.0 0.0 0.00 0.00 0.00 54 1016.0
20260905185806 26 70 0.0 0.0 0.00 0.00 0.00 55 1015.9
20260905184805 26 64 0.0 0.0 0.00 0.00 0.00 57 1015.9
20260905184306 26 53 0.0 0.0 0.00 0.00 0.00 56 1015.8
20260905183805 27 161 0.0 0.0 0.00 0.00 0.00 56 1015.7
20260905183306 27 16 0.0 0.0 0.00 0.00 0.00 56 1015.7
20260905182805 27 22 0.0 0.0 0.00 0.00 0.00 55 1015.7
20260905181305 27 26 0.0 0.0 0.00 0.00 0.00 54 1015.5
20260905180805 27 73 0.0 0.0 0.00 0.00 0.00 54 1015.5
20260905180306 27 68 0.0 0.0 0.00 0.00 0.00 53 1015.5
20260905175806 27 26 0.0 0.0 0.00 0.00 0.00 52 1015.5
20260905175306 27 31 0.0 0.0 0.00 0.00 0.00 52 1015.5
20260905174305 28 178 0.0 0.0 0.00 0.00 0.00 49 1015.5
20260905173806 28 67 0.0 0.0 0.00 0.00 0.00 48 1015.5
20260905173305 28 221 0.0 0.0 0.00 0.00 0.00 45 1015.4
20260905172805 28 229 0.0 0.0 0.00 0.00 0.00 44 1015.4
20260905172306 28 154 0.0 0.0 0.00 0.00 0.00 44 1015.4
20260905171806 28 273 0.0 0.0 0.00 0.00 0.00 43 1015.4
20260905171305 28 325 0.0 0.0 0.00 0.00 0.00 43 1015.4
20260905170305 28 293 0.0 0.0 0.00 0.00 0.00 43 1015.4
20260905164805 29 199 0.0 0.0 0.00 0.00 0.00 41 1015.4
20260905164306 29 281 0.0 0.0 0.00 0.00 0.00 41 1015.4
20260905163305 29 156 0.0 0.0 0.00 0.00 0.00 41 1015.4
20260905162806 29 268 0.0 0.0 0.00 0.00 0.00 40 1015.4
20260905162306 30 291 0.0 0.0 0.00 0.00 0.00 40 1015.4
20260905161305 30 255 0.0 0.0 0.00 0.00 0.00 40 1015.5
20260905160806 30 306 0.0 0.0 0.00 0.00 0.00 40 1015.4
20260905160305 30 282 0.0 0.0 0.00 0.00 0.00 40 1015.4
20260905155805 30 261 0.0 0.0 0.00 0.00 0.00 39 1015.4
20260905155306 30 201 0.0 0.0 0.00 0.00 0.00 39 1015.4
20260905154805 30 173 0.0 0.0 0.00 0.00 0.00 39 1015.4
20260905153805 31 267 0.0 0.0 0.00 0.00 0.00 39 1015.4
20260905153305 31 184 0.0 0.0 0.00 0.00 0.00 38 1015.4
20260905152805 31 205 0.0 0.0 0.00 0.00 0.00 37 1015.4
20260905152306 31 139 0.0 0.0 0.00 0.00 0.00 37 1015.5
20260905151806 31 283 0.0 0.0 0.00 0.00 0.00 37 1015.4
20260905151305 31 124 0.0 0.0 0.00 0.00 0.00 37 1015.4
20260905150805 31 157 0.0 0.0 0.00 0.00 0.00 37 1015.4
20260905150307 31 288 0.0 0.0 0.00 0.00 0.00 36 1015.3
20260905144806 31 166 0.0 0.0 0.00 0.00 0.00 36 1015.3
20260905143805 31 152 0.0 0.0 0.00 0.00 0.00 36 1015.3
20260905142806 31 198 0.0 0.0 0.00 0.00 0.00 36 1015.3
20260905142306 31 266 0.0 0.0 0.00 0.00 0.00 35 1015.4
20260905140305 32 235 0.0 0.0 0.00 0.00 0.00 35 1015.4
20260905135805 32 157 0.0 0.0 0.00 0.00 0.00 35 1015.4
20260905135306 32 248 0.0 0.0 0.00 0.00 0.00 34 1015.4
20260905134305 32 221 0.0 0.0 0.00 0.00 0.00 34 1015.3
20260905133305 32 108 0.0 0.0 0.00 0.00 0.00 33 1015.3
20260905132805 32 262 0.0 0.0 0.00 0.00 0.00 33 1015.4
20260905132306 33 144 0.0 0.0 0.00 0.00 0.00 33 1015.4
20260905131806 33 249 0.0 0.0 0.00 0.00 0.00 32 1015.5
20260905131305 32 172 0.0 0.0 0.00 0.00 0.00 33 1015.5
20260905125805 33 246 0.0 0.0 0.00 0.00 0.00 32 1015.6
20260905125306 32 217 0.0 0.0 0.00 0.00 0.00 33 1015.6
20260905124805 32 276 0.0 0.0 0.00 0.00 0.00 32 1015.7
20260905124305 33 166 0.0 0.0 0.00 0.00 0.00 32 1015.8
20260905123805 33 252 0.0 0.0 0.00 0.00 0.00 32 1015.9
20260905123305 33 121 0.0 0.0 0.00 0.00 0.00 31 1015.9
20260905122307 33 335 0.0 0.0 0.00 0.00 0.00 31 1015.9
20260905121805 33 241 0.0 0.0 0.00 0.00 0.00 30 1015.9
20260905121305 33 210 0.0 0.0 0.00 0.00 0.00 31 1016.0
20260905120805 33 222 0.0 0.0 0.00 0.00 0.00 31 1016.0
20260905115806 33 73 0.0 0.0 0.00 0.00 0.00 30 1016.2
20260905115306 33 111 0.0 0.0 0.00 0.00 0.00 30 1016.1
20260905114805 33 253 0.0 0.0 0.00 0.00 0.00 30 1016.3
20260905114306 33 227 0.0 0.0 0.00 0.00 0.00 30 1016.2
20260905113804 32 190 0.0 0.0 0.00 0.00 0.00 30 1016.3
20260905112805 32 240 0.0 0.0 0.00 0.00 0.00 30 1016.4
20260905112306 32 51 0.0 0.0 0.00 0.00 0.00 30 1016.4
20260905111305 32 302 0.0 0.0 0.00 0.00 0.00 31 1016.5
20260905110805 32 117 0.0 0.0 0.00 0.00 0.00 31 1016.5